[{"OBJECT_NAME":"BEIDOU-3 M18 (C37)","OBJECT_ID":"2018-093B","EPOCH":"2026-09-12T03:52:46.892640","MEAN_MOTION":1.86226659,"ECCENTRICITY":0.00074767,"INCLINATION":54.167,"RA_OF_ASC_NODE":179.3395,"ARG_OF_PERICENTER":338.2296,"MEAN_ANOMALY":21.7414,"EPHEMERIS_TYPE":0,"CLASSIFICATION_TYPE":"U","NORAD_CAT_ID":43707,"ELEMENT_SET_NO":999,"REV_AT_EPOCH":5315,"BSTAR":0,"MEAN_MOTION_DOT":-2e-8,"MEAN_MOTION_DDOT":0},{"OBJECT_NAME":"GPS BIII-1  (PRN 04)","OBJECT_ID":"2018-109A","EPOCH":"2026-09-12T00:11:47.723136","MEAN_MOTION":2.00565073,"ECCENTRICITY":0.00399894,"INCLINATION":55.7397,"RA_OF_ASC_NODE":88.7611,"ARG_OF_PERICENTER":196.158,"MEAN_ANOMALY":336.6894,"EPHEMERIS_TYPE":0,"CLASSIFICATION_TYPE":"U","NORAD_CAT_ID":43873,"ELEMENT_SET_NO":999,"REV_AT_EPOCH":5681,"BSTAR":0,"MEAN_MOTION_DOT":7e-8,"MEAN_MOTION_DDOT":0},{"OBJECT_NAME":"BEIDOU-3 IGSO-1 (C38)","OBJECT_ID":"2019-023A","EPOCH":"2026-09-07T17:44:03.010272","MEAN_MOTION":1.0026721,"ECCENTRICITY":0.0027421,"INCLINATION":58.8141,"RA_OF_ASC_NODE":36.8058,"ARG_OF_PERICENTER":223.4639,"MEAN_ANOMALY":111.5661,"EPHEMERIS_TYPE":0,"CLASSIFICATION_TYPE":"U","NORAD_CAT_ID":44204,"ELEMENT_SET_NO":999,"REV_AT_EPOCH":803,"BSTAR":0,"MEAN_MOTION_DOT":-0.00000201,"MEAN_MOTION_DDOT":0},{"OBJECT_NAME":"BEIDOU-2 G8 (C01)","OBJECT_ID":"2019-027A","EPOCH":"2026-09-12T07:44:54.685824","MEAN_MOTION":1.00272032,"ECCENTRICITY":0.00090495,"INCLINATION":1.8738,"RA_OF_ASC_NODE":74.3172,"ARG_OF_PERICENTER":278.0738,"MEAN_ANOMALY":259.7237,"EPHEMERIS_TYPE":0,"CLASSIFICATION_TYPE":"U","NORAD_CAT_ID":44231,"ELEMENT_SET_NO":999,"REV_AT_EPOCH":2695,"BSTAR":0,"MEAN_MOTION_DOT":-0.0000026,"MEAN_MOTION_DDOT":0},{"OBJECT_NAME":"COSMOS 2534 (758)","OBJECT_ID":"2019-030A","EPOCH":"2026-09-08T07:03:58.896288","MEAN_MOTION":2.13102149,"ECCENTRICITY":0.0012038,"INCLINATION":64.3699,"RA_OF_ASC_NODE":189.8198,"ARG_OF_PERICENTER":275.8196,"MEAN_ANOMALY":260.4578,"EPHEMERIS_TYPE":0,"CLASSIFICATION_TYPE":"U","NORAD_CAT_ID":44299,"ELEMENT_SET_NO":999,"REV_AT_EPOCH":5669,"BSTAR":0,"MEAN_MOTION_DOT":-1.9e-7,"MEAN_MOTION_DDOT":0},{"OBJECT_NAME":"BEIDOU-3 IGSO-2 (C39)","OBJECT_ID":"2019-035A","EPOCH":"2026-09-11T10:59:48.652800","MEAN_MOTION":1.00273492,"ECCENTRICITY":0.00386525,"INCLINATION":55.2503,"RA_OF_ASC_NODE":158.1052,"ARG_OF_PERICENTER":211.3311,"MEAN_ANOMALY":265.786,"EPHEMERIS_TYPE":0,"CLASSIFICATION_TYPE":"U","NORAD_CAT_ID":44337,"ELEMENT_SET_NO":999,"REV_AT_EPOCH":2653,"BSTAR":0,"MEAN_MOTION_DOT":-0.00000155,"MEAN_MOTION_DDOT":0},{"OBJECT_NAME":"GPS BIII-2  (PRN 18)","OBJECT_ID":"2019-056A","EPOCH":"2026-09-10T09:48:58.382784","MEAN_MOTION":2.00571097,"ECCENTRICITY":0.0065766,"INCLINATION":55.5893,"RA_OF_ASC_NODE":327.7525,"ARG_OF_PERICENTER":199.8938,"MEAN_ANOMALY":163.841,"EPHEMERIS_TYPE":0,"CLASSIFICATION_TYPE":"U","NORAD_CAT_ID":44506,"ELEMENT_SET_NO":999,"REV_AT_EPOCH":5178,"BSTAR":0,"MEAN_MOTION_DOT":-8.5e-7,"MEAN_MOTION_DDOT":0},{"OBJECT_NAME":"BEIDOU-3 M24 (C46)","OBJECT_ID":"2019-061A","EPOCH":"2026-09-10T01:57:00.737856","MEAN_MOTION":1.86229234,"ECCENTRICITY":0.00091736,"INCLINATION":54.3942,"RA_OF_ASC_NODE":179.8664,"ARG_OF_PERICENTER":11.0844,"MEAN_ANOMALY":348.9243,"EPHEMERIS_TYPE":0,"CLASSIFICATION_TYPE":"U","NORAD_CAT_ID":44542,"ELEMENT_SET_NO":999,"REV_AT_EPOCH":4737,"BSTAR":0,"MEAN_MOTION_DOT":-2.4e-7,"MEAN_MOTION_DDOT":0},{"OBJECT_NAME":"BEIDOU-3 M23 (C45)","OBJECT_ID":"2019-061B","EPOCH":"2026-09-10T11:52:23.318976","MEAN_MOTION":1.862277,"ECCENTRICITY":0.00060428,"INCLINATION":54.3922,"RA_OF_ASC_NODE":179.8209,"ARG_OF_PERICENTER":0.0624,"MEAN_ANOMALY":188.1997,"EPHEMERIS_TYPE":0,"CLASSIFICATION_TYPE":"U","NORAD_CAT_ID":44543,"ELEMENT_SET_NO":999,"REV_AT_EPOCH":4738,"BSTAR":0,"MEAN_MOTION_DOT":-2e-7,"MEAN_MOTION_DDOT":0},{"OBJECT_NAME":"EUTELSAT 5 WEST B (EGNOS/PRN 121)","OBJECT_ID":"2019-067A","EPOCH":"2026-09-12T07:02:13.778592","MEAN_MOTION":1.00271414,"ECCENTRICITY":0.00031178,"INCLINATION":0.0807,"RA_OF_ASC_NODE":320.7031,"ARG_OF_PERICENTER":210.1059,"MEAN_ANOMALY":281.0499,"EPHEMERIS_TYPE":0,"CLASSIFICATION_TYPE":"U","NORAD_CAT_ID":44624,"ELEMENT_SET_NO":999,"REV_AT_EPOCH":2530,"BSTAR":0,"MEAN_MOTION_DOT":-5.7e-7,"MEAN_MOTION_DDOT":0},{"OBJECT_NAME":"BEIDOU-3 IGSO-3 (C40)","OBJECT_ID":"2019-073A","EPOCH":"2026-09-11T11:21:00.152352","MEAN_MOTION":1.0026408,"ECCENTRICITY":0.00468467,"INCLINATION":54.6556,"RA_OF_ASC_NODE":279.957,"ARG_OF_PERICENTER":198.0806,"MEAN_ANOMALY":161.8102,"EPHEMERIS_TYPE":0,"CLASSIFICATION_TYPE":"U","NORAD_CAT_ID":44709,"ELEMENT_SET_NO":999,"REV_AT_EPOCH":2532,"BSTAR":0,"MEAN_MOTION_DOT":-0.00000166,"MEAN_MOTION_DDOT":0},{"OBJECT_NAME":"BEIDOU-3 M22 (C44)","OBJECT_ID":"2019-078A","EPOCH":"2026-09-11T12:47:45.201984","MEAN_MOTION":1.86227049,"ECCENTRICITY":0.00048404,"INCLINATION":53.8546,"RA_OF_ASC_NODE":296.7826,"ARG_OF_PERICENTER":42.9059,"MEAN_ANOMALY":317.1987,"EPHEMERIS_TYPE":0,"CLASSIFICATION_TYPE":"U","NORAD_CAT_ID":44793,"ELEMENT_SET_NO":999,"REV_AT_EPOCH":4625,"BSTAR":0,"MEAN_MOTION_DOT":-5e-7,"MEAN_MOTION_DDOT":0},{"OBJECT_NAME":"BEIDOU-3 M21 (C43)","OBJECT_ID":"2019-078B","EPOCH":"2026-09-11T03:15:42.039936","MEAN_MOTION":1.86227553,"ECCENTRICITY":0.00027356,"INCLINATION":53.8284,"RA_OF_ASC_NODE":296.7562,"ARG_OF_PERICENTER":33.9992,"MEAN_ANOMALY":326.0864,"EPHEMERIS_TYPE":0,"CLASSIFICATION_TYPE":"U","NORAD_CAT_ID":44794,"ELEMENT_SET_NO":999,"REV_AT_EPOCH":4625,"BSTAR":0,"MEAN_MOTION_DOT":-4.7e-7,"MEAN_MOTION_DDOT":0},{"OBJECT_NAME":"COSMOS 2544 (759)","OBJECT_ID":"2019-088A","EPOCH":"2026-09-10T21:41:39.937344","MEAN_MOTION":2.13102659,"ECCENTRICITY":0.0011883,"INCLINATION":65.6173,"RA_OF_ASC_NODE":70.8727,"ARG_OF_PERICENTER":245.7348,"MEAN_ANOMALY":114.1821,"EPHEMERIS_TYPE":0,"CLASSIFICATION_TYPE":"U","NORAD_CAT_ID":44850,"ELEMENT_SET_NO":999,"REV_AT_EPOCH":5254,"BSTAR":0,"MEAN_MOTION_DOT":1.5e-7,"MEAN_MOTION_DDOT":0},{"OBJECT_NAME":"BEIDOU-3 M19 (C41)","OBJECT_ID":"2019-090A","EPOCH":"2026-09-11T09:03:23.953248","MEAN_MOTION":1.86231354,"ECCENTRICITY":0.00157674,"INCLINATION":56.6386,"RA_OF_ASC_NODE":59.9456,"ARG_OF_PERICENTER":292.8904,"MEAN_ANOMALY":67.0484,"EPHEMERIS_TYPE":0,"CLASSIFICATION_TYPE":"U","NORAD_CAT_ID":44864,"ELEMENT_SET_NO":999,"REV_AT_EPOCH":4583,"BSTAR":0,"MEAN_MOTION_DOT":-3.4e-7,"MEAN_MOTION_DDOT":0},{"OBJECT_NAME":"BEIDOU-3 M20 (C42)","OBJECT_ID":"2019-090B","EPOCH":"2026-09-09T02:16:43.229856","MEAN_MOTION":1.86231127,"ECCENTRICITY":0.00130536,"INCLINATION":56.6383,"RA_OF_ASC_NODE":60.0563,"ARG_OF_PERICENTER":308.9371,"MEAN_ANOMALY":50.3333,"EPHEMERIS_TYPE":0,"CLASSIFICATION_TYPE":"U","NORAD_CAT_ID":44865,"ELEMENT_SET_NO":999,"REV_AT_EPOCH":4577,"BSTAR":0,"MEAN_MOTION_DOT":-1.3e-7,"MEAN_MOTION_DDOT":0},{"OBJECT_NAME":"BEIDOU-3 G2 (C60)","OBJECT_ID":"2020-017A","EPOCH":"2026-09-12T04:01:01.155072","MEAN_MOTION":1.00272263,"ECCENTRICITY":0.0002124,"INCLINATION":2.5806,"RA_OF_ASC_NODE":48.3907,"ARG_OF_PERICENTER":131.9601,"MEAN_ANOMALY":311.1309,"EPHEMERIS_TYPE":0,"CLASSIFICATION_TYPE":"U","NORAD_CAT_ID":45344,"ELEMENT_SET_NO":999,"REV_AT_EPOCH":2413,"BSTAR":0,"MEAN_MOTION_DOT":-0.00000153,"MEAN_MOTION_DDOT":0},{"OBJECT_NAME":"COSMOS 2545 (760)","OBJECT_ID":"2020-018A","EPOCH":"2026-09-11T02:22:22.278144","MEAN_MOTION":2.13102362,"ECCENTRICITY":0.0011763,"INCLINATION":64.2987,"RA_OF_ASC_NODE":309.3957,"ARG_OF_PERICENTER":235.3288,"MEAN_ANOMALY":124.6388,"EPHEMERIS_TYPE":0,"CLASSIFICATION_TYPE":"U","NORAD_CAT_ID":45358,"ELEMENT_SET_NO":999,"REV_AT_EPOCH":5049,"BSTAR":0,"MEAN_MOTION_DOT":-3.6e-7,"MEAN_MOTION_DDOT":0},{"OBJECT_NAME":"BEIDOU-3 G3 (C61)","OBJECT_ID":"2020-040A","EPOCH":"2026-09-12T07:35:10.620096","MEAN_MOTION":1.00269676,"ECCENTRICITY":0.00026444,"INCLINATION":2.6569,"RA_OF_ASC_NODE":67.4129,"ARG_OF_PERICENTER":281.4958,"MEAN_ANOMALY":226.759,"EPHEMERIS_TYPE":0,"CLASSIFICATION_TYPE":"U","NORAD_CAT_ID":45807,"ELEMENT_SET_NO":999,"REV_AT_EPOCH":2294,"BSTAR":0,"MEAN_MOTION_DOT":-0.00000367,"MEAN_MOTION_DDOT":0},{"OBJECT_NAME":"GPS BIII-3  (PRN 23)","OBJECT_ID":"2020-041A","EPOCH":"2026-09-12T04:54:28.876896","MEAN_MOTION":2.0056608,"ECCENTRICITY":0.0067432,"INCLINATION":56.7252,"RA_OF_ASC_NODE":25.574,"ARG_OF_PERICENTER":205.404,"MEAN_ANOMALY":308.9873,"EPHEMERIS_TYPE":0,"CLASSIFICATION_TYPE":"U","NORAD_CAT_ID":45854,"ELEMENT_SET_NO":999,"REV_AT_EPOCH":4578,"BSTAR":0,"MEAN_MOTION_DOT":-9.5e-7,"MEAN_MOTION_DDOT":0},{"OBJECT_NAME":"GALAXY 30 (WAAS/PRN 135)","OBJECT_ID":"2020-056C","EPOCH":"2026-09-12T06:28:02.056800","MEAN_MOTION":1.00271549,"ECCENTRICITY":0.00022071,"INCLINATION":0.0228,"RA_OF_ASC_NODE":160.5572,"ARG_OF_PERICENTER":10.2914,"MEAN_ANOMALY":152.4352,"EPHEMERIS_TYPE":0,"CLASSIFICATION_TYPE":"U","NORAD_CAT_ID":46114,"ELEMENT_SET_NO":999,"REV_AT_EPOCH":2216,"BSTAR":0,"MEAN_MOTION_DOT":0,"MEAN_MOTION_DDOT":0},{"OBJECT_NAME":"COSMOS 2547 (705K)","OBJECT_ID":"2020-075A","EPOCH":"2026-09-11T18:12:09.302400","MEAN_MOTION":2.13099687,"ECCENTRICITY":0.00085533,"INCLINATION":64.6008,"RA_OF_ASC_NODE":189.588,"ARG_OF_PERICENTER":236.4821,"MEAN_ANOMALY":123.427,"EPHEMERIS_TYPE":0,"CLASSIFICATION_TYPE":"U","NORAD_CAT_ID":46805,"ELEMENT_SET_NO":999,"REV_AT_EPOCH":4575,"BSTAR":0,"MEAN_MOTION_DOT":0,"MEAN_MOTION_DDOT":0},{"OBJECT_NAME":"GPS BIII-4  (PRN 14)","OBJECT_ID":"2020-078A","EPOCH":"2026-09-11T12:24:33.881184","MEAN_MOTION":2.00565053,"ECCENTRICITY":0.00760655,"INCLINATION":53.9683,"RA_OF_ASC_NODE":207.2798,"ARG_OF_PERICENTER":208.4421,"MEAN_ANOMALY":149.1755,"EPHEMERIS_TYPE":0,"CLASSIFICATION_TYPE":"U","NORAD_CAT_ID":46826,"ELEMENT_SET_NO":999,"REV_AT_EPOCH":4323,"BSTAR":0,"MEAN_MOTION_DOT":-1.2e-7,"MEAN_MOTION_DDOT":0},{"OBJECT_NAME":"GPS BIII-5  (PRN 11)","OBJECT_ID":"2021-054A","EPOCH":"2026-09-11T06:14:48.999840","MEAN_MOTION":2.00563701,"ECCENTRICITY":0.00284399,"INCLINATION":55.1268,"RA_OF_ASC_NODE":328.9967,"ARG_OF_PERICENTER":230.5018,"MEAN_ANOMALY":127.7457,"EPHEMERIS_TYPE":0,"CLASSIFICATION_TYPE":"U","NORAD_CAT_ID":48859,"ELEMENT_SET_NO":999,"REV_AT_EPOCH":3847,"BSTAR":0,"MEAN_MOTION_DOT":-9e-7,"MEAN_MOTION_DDOT":0}]